STARLINK-37126, 68520

Orbit data source: Space-Track

STARLINK-37126, 68520 is a payload satellite owned by SpaceX/Seattle (US) in LEO that was launched on Mon, 30 Mar 2026 UTC via an FALCON 9 launch vehicle from the Air Force Eastern Test Range (AFETR). Payload-class satellites include a variety of spacecraft equipped with specific instruments for various scientific and technological missions. These include communications satellites like Starlink; space stations such as the ISS; scientific satellites like the Hubble; Earth observation satellites from companies like Planet Labs, Umbra, and HawkEye 360; GPS; miniature CubeSats for education and research; and military/defense satellites.

Loading next visibility...
Identifier
68520, 2026-068N
Orbit
LEO
Country
Flag of USUS
Related business
Manufacturer
SpaceX/Seattle
Mission
Operational spacecraft
Bus & Motor
STARLINK V2MO, Unknown motor
Mass
575 kg wet, ~530 kg dry
Launch date (UTC)
2026-03-30 (3 months ago)
Launch vehicle
FALCON 9
Launch site
Air Force Eastern Test Range (AFETR)
Object type
Payload
Rocket body
Debris
Shape & HBR
Unknown shape, 2.4 m
Radar Cross Section
Large (>1 m²)

Expand to show TLE details & history
Last TLE update: 1 day ago

TLE from 1 day ago
0 STARLINK-37126
1 68520U 26068N   26170.83656832  .00015756  00000-0  47644-3 0  9992
2 68520  53.1584  12.7086 0001022  73.3307 286.7808 15.34402284 12613
Epoch: 2026-06-19T20:04Z
TLE epoch observation values (Epoch: 2026-06-19T20:04:39.502Z)
Latitude
-0.00002°
Longitude
163.48417°
Altitude
463.396 km
Speed
7.636 km/s
True Right ascension
00h 50m 50s
True Declination
0° 00' 00"
Sunlit
Object was in daylight at epoch
Visualization orbit readout
Latitude
Unknown
Longitude
Unknown
Altitude
Unknown
Speed
Unknown
Apparent Right ascension
Unknown
Apparent Declination
Unknown
Sunlit
N/A
Visualization observer readout
Local Sidereal Time
07:19:01
Azimuth
Unknown
Elevation
Unknown
Doppler factor
Unknown
Orbital elements
Apogee altitude
463.653 km
Perigee altitude
462.254 km
Semi-major axis
6,841.091 km
Eccentricity
0.0001
Inclination
53.1584°
RAAN
12.7086°
Arg. of periapsis
73.3307°
True anomaly
286.76959°
Mean anomaly
286.7808°
Eccentric anomaly
286.77519°
Mean motion
3.83579 °/min
Orbital period
93.85 mins
BSTAR
0.00047644
Loading maneuver chart data...
Computing Atmospheric mass density...
Loading historical data...
Loading historical data...
Loading historical data...
Loading historical data...
Loading historical data...
Loading historical data...
Loading historical data...

Documentation

Showing up to 5 results
|